Location: Hopville
(44.8032°N, 123.1329°W)
Time: 04:47:13
(UTC+00:00)

NOSS 0 Rocket - Pass Details

Date: 24 January 2021
Orbit: 938 x 952 km, 70.0° (Epoch: 26 February)

Event Time Altitude Azimuth Distance (km) Brightness Sun altitude
Exits shadow 12:35:31 48° 147° (SSE) 1,221 4.5 -32.5°
Maximum altitude 12:36:39 54° 110° (ESE) 1,131 4.5 -32.3°
Drops below altitude 10° 12:42:39 10° 35° (NE) 2,662 6.7 -31.3°
Sets 12:45:13 0° 31° (NNE) 3,609 7.4 -30.8°
